Franklin, PA

7:10 PM EST on November 18, 2019 (GMT -0500)
Venango Regional

Weather History for KFKL - June, 2019

Change the Weather History Date:

Tuesday, June 4, 2019

  Actual Average Record
Temperature  
Mean Temperature 54 °F -  
Max Temperature 73 °F 73 °F 100 °F (1934)
Min Temperature 37 °F 47 °F 33 °F (1926)
Degree Days  
Heating Degree Days 10    
Growing Degree Days 4 (Base 50)    
Moisture  
Dew Point 44 °F    
Average Humidity 66    
Maximum Humidity 93    
Minimum Humidity 42    
Precipitation  
Precipitation 0.00 in - - ()
Sea Level Pressure  
Sea Level Pressure 30.09 in    
Wind  
Wind Speed 5 mph (SSW)    
Max Wind Speed 13 mph    
Max Gust Speed 20 mph    
Visibility 10 miles    
Events Rain    
Averages and records for this station are not official NWS values.
T = Trace of Precipitation, MM = Missing Value Source: NWS Daily Summary

Daily Weather History Graph

Daily Weather History Graph

Search for Another Location

Airport or City:

Astronomy

Jun. 04, 2019 Rise Set
Actual Time 5:47 AM EDT 8:48 PM EDT
Civil Twilight 5:13 AM EDT 9:21 PM EDT
Nautical Twilight 4:31 AM EDT 10:04 PM EDT
Astronomical Twilight 3:41 AM EDT 10:54 PM EDT
Moon 6:55 AM EDT (6/4) 10:15 PM EDT (6/4)
Length of Visible Light 16h 08m
Length of Day
15h 01m
New Moon, 2% of the Moon is Illuminated
Jun 4
New Moon
Jun 10
First Quarter
Jun 17
Full
Jun 25
Last Quarter
Jul 2
New

Hourly Weather History & Observations

Time (EDT) Temp. Windchill Dew Point Humidity Pressure Visibility Wind Dir Wind Speed Gust Speed Precip Events Conditions
12:56 AM 39.9 °F - 37.0 °F 89% 30.17 in 10.0 mi Calm Calm - N/A   Clear
1:56 AM 39.9 °F - 37.0 °F 89% 30.17 in 10.0 mi Calm Calm - N/A   Clear
2:56 AM 39.0 °F - 37.0 °F 93% 30.16 in 10.0 mi Calm Calm - N/A   Clear
3:56 AM 37.9 °F 35.5 °F 36.0 °F 93% 30.16 in 10.0 mi SW 3.5 mph - N/A   Clear
4:56 AM 37.0 °F 33.3 °F 35.1 °F 93% 30.17 in 10.0 mi South 4.6 mph - N/A   Clear
5:56 AM 37.9 °F 34.4 °F 36.0 °F 93% 30.18 in 10.0 mi South 4.6 mph - N/A   Clear
6:56 AM 42.1 °F 37.1 °F 37.9 °F 85% 30.18 in 10.0 mi South 8.1 mph - N/A   Clear
7:56 AM 46.9 °F - 39.0 °F 74% 30.19 in 10.0 mi SSW 9.2 mph - N/A   Clear
8:56 AM 53.1 °F - 39.9 °F 61% 30.18 in 10.0 mi South 9.2 mph - N/A   Clear
9:56 AM 57.9 °F - 41.0 °F 53% 30.17 in 10.0 mi South 9.2 mph - N/A   Partly Cloudy
10:56 AM 62.1 °F - 42.1 °F 48% 30.15 in 10.0 mi WSW 8.1 mph 16.1 mph N/A   Clear
11:56 AM 66.9 °F - 45.0 °F 45% 30.13 in 10.0 mi West 11.5 mph 16.1 mph N/A   Clear
12:56 PM - - - N/A% - - North - - N/A   Unknown
1:56 PM 68.0 °F - 44.1 °F 42% 30.09 in 10.0 mi SW 6.9 mph 16.1 mph N/A   Clear
2:56 PM 71.1 °F - 46.9 °F 42% - 10.0 mi WSW 11.5 mph 17.3 mph N/A   Clear
3:56 PM 71.1 °F - 48.0 °F 44% 30.04 in 10.0 mi SSW 12.7 mph 19.6 mph N/A   Mostly Cloudy
4:56 PM 72.0 °F - 50.0 °F 46% 30.02 in 10.0 mi SW 11.5 mph - N/A   Mostly Cloudy
5:56 PM 69.1 °F - 48.9 °F 49% 30.01 in 10.0 mi SSW 6.9 mph - N/A   Overcast
6:32 PM 69.8 °F - 51.8 °F 53% 29.99 in 10.0 mi SW 5.8 mph - N/A   Mostly Cloudy
6:56 PM 68.0 °F - 51.1 °F 55% 29.99 in 10.0 mi SW 5.8 mph - N/A   Mostly Cloudy
7:56 PM 66.0 °F - 52.0 °F 60% 29.99 in 10.0 mi SSW 6.9 mph - N/A   Overcast
8:56 PM 66.0 °F - 52.0 °F 60% 29.97 in 10.0 mi SSW 6.9 mph - N/A   Overcast
9:56 PM 64.9 °F - 52.0 °F 63% 29.96 in 10.0 mi SW 5.8 mph - N/A   Mostly Cloudy
10:56 PM 64.0 °F - 53.1 °F 67% - 10.0 mi SSW 6.9 mph - N/A   Overcast
11:56 PM 61.0 °F - 55.0 °F 81% 29.95 in 10.0 mi SSW 9.2 mph - 0.00 in Rain Light Rain